363P/Lemmon (2018)

Japanese version
Home page
Updated on May 21, 2018

---------------------------------------------------------------------

* Profile

Designation 363P/2017 W1
Recovery Date November 19, 2017
Magnitude 20.3 mag
Recoverer Erwin Schwab and Pablo Ruiz (European Space Agency's Optical Ground Station, Tenerife, Spain)

* Pictures

* Orbital Elements

Epoch 2018 Mar. 23.0 TT = JDT 2458200.5
T 2018 Mar. 22.92097 TT                                 MPCW
q   1.5078614            (2000.0)            P               Q
n   0.15691736     Peri.  315.28054     -0.57669651     -0.81686830
a   3.4042547      Node   169.91720     +0.76761145     -0.54688750
e   0.5570656      Incl.    3.97537     +0.27963153     -0.18341276
P   6.28
From 83 observations 2011 Nov. 3-2018 Jan. 14, mean residual 0".4.

* Magnitudes Graph

        m1 = 17.5 + 5 log d + 10.0 log r

---------------------------------------------------------------------

The orbital elements are published on M.P.E.C. 2018-B155.
The magnitudes graphs are made with Comet for Windows.

---------------------------------------------------------------------

Copyright(C) Seiichi Yoshida (comet@aerith.net). All rights reserved.